This demonstration page uses our WeatherBlox Daily Observations layout. Learn more.

Left ArrowRight Arrow

Hourly Observations for November 11, 2018

Temp ( °F °C ) Dew Point ( °F °C ) Humidity (%) Winds ( mph kmh ) Pressure ( in mb ) Visibility ( mi km ) Precip ( " mm )
12:57 am 00:57 Clear 23 -5 21 -6.1 92 92 NW 10 17 30.22 1023 10 16 0.00 0.00
1:57 am 01:57 Clear 23 -5 21 -6.1 92 92 WNW 6 9 30.23 1024 10 16 0.00 0.00
2:57 am 02:57 Clear 24 -4.4 22 -5.6 91 91 NNW 10 17 30.23 1024 10 16 0.00 0.00
3:57 am 03:57 Clear 26 -3.3 24 -4.4 92 92 NNW 6 9 30.23 1024 10 16 0.00 0.00
4:57 am 04:57 Clear 27 -2.8 25 -3.9 92 92 NNW 7 11 30.24 1024 10 16 0.00 0.00
5:57 am 05:57 Mostly Clear 29 -1.7 26 -3.3 89 89 N 13 20 30.24 1024 10 16 0.00 0.00
6:57 am 06:57 Partly Cloudy 29 -1.7 25 -3.9 85 85 N 8 13 30.27 1025 10 16 0.00 0.00
7:57 am 07:57 Mostly Sunny 27 -2.8 22 -5.6 81 81 NNW 3 6 30.29 1026 10 16 0.00 0.00
8:57 am 08:57 Mostly Sunny 31 -0.6 27 -2.8 85 85 N 12 19 30.32 1027 10 16 0.00 0.00
9:57 am 09:57 Sunny 32 0 27 -2.8 82 82 N 10 17 30.33 1027 10 16 0.00 0.00
10:57 am 10:57 Sunny 34 1.1 26 -3.3 73 73 NNE 12 19 30.35 1028 10 16 0.00 0.00
11:57 am 11:57 Sunny 35 1.7 25 -3.9 67 67 N 17 28 30.33 1027 10 16 0.00 0.00
12:57 pm 12:57 Sunny 37 2.8 25 -3.9 62 62 N 14 22 30.31 1027 10 16 0.00 0.00
1:57 pm 13:57 Partly Cloudy 37 2.8 24 -4.4 59 59 N 13 20 30.31 1026 10 16 0.00 0.00
2:57 pm 14:57 Mostly Cloudy 37 2.8 23 -5 57 57 N 10 17 30.32 1027 10 16 0.00 0.00
3:57 pm 15:57 Cloudy 35 1.7 24 -4.4 64 64 N 12 19 30.33 1027 10 16 0.00 0.00
4:57 pm 16:57 Cloudy 33 0.6 22 -5.6 64 64 N 10 17 30.35 1028 10 16 0.00 0.00
5:57 pm 17:57 Partly Cloudy 32 0 24 -4.4 73 73 N 5 7 30.35 1028 10 16 0.00 0.00
6:57 pm 18:57 Cloudy 31 -0.6 25 -3.9 79 79 Calm 30.37 1029 10 16 0.00 0.00
7:57 pm 19:57 Cloudy 30 -1.1 25 -3.9 82 82 NE 5 7 30.40 1030 10 16 0.00 0.00
8:57 pm 20:57 Mostly Clear 29 -1.7 23 -5 78 78 N 9 15 30.41 1030 10 16 0.00 0.00
9:57 pm 21:57 Clear 27 -2.8 23 -5 85 85 NNE 7 11 30.44 1031 10 16 0.00 0.00
10:57 pm 22:57 Mostly Clear 26 -3.3 23 -5 88 88 NNE 6 9 30.46 1032 10 16 0.00 0.00
11:57 pm 23:57 Clear 26 -3.3 22 -5.6 84 84 N 6 9 30.45 1031 10 16 0.00 0.00

Powered by AerisWeather